Time,TemperatureF,DewpointF,PressureIn,WindDirection,WindDirectionDegrees,WindSpeedMPH,WindSpeedGustMPH,Humidity,HourlyPrecipIn,Conditions,Clouds,dailyrainin,SoftwareType,DateUTC
2013-03-24 00:03:00,39.5,39.0,29.78,NE,44,13.0,14.0,97,0.00,,,0.10,weatherlink.com 1.10,2013-03-24 05:03:00,
2013-03-24 00:18:00,38.9,38.0,29.76,NE,51,7.0,16.0,97,0.01,,,0.11,weatherlink.com 1.10,2013-03-24 05:18:00,
2013-03-24 00:33:00,38.5,38.0,29.77,ENE,78,9.0,18.0,97,0.01,,,0.11,weatherlink.com 1.10,2013-03-24 05:33:00,
2013-03-24 00:48:00,38.3,38.0,29.76,ENE,73,12.0,17.0,97,0.01,,,0.11,weatherlink.com 1.10,2013-03-24 05:48:00,
2013-03-24 01:03:00,38.0,37.0,29.79,NE,55,11.0,14.0,97,0.01,,,0.11,weatherlink.com 1.10,2013-03-24 06:03:00,
2013-03-24 01:18:00,37.7,37.0,29.80,ENE,74,9.0,13.0,97,0.00,,,0.11,weatherlink.com 1.10,2013-03-24 06:18:00,
2013-03-24 01:33:00,37.5,37.0,29.78,ENE,62,8.0,14.0,97,0.00,,,0.11,weatherlink.com 1.10,2013-03-24 06:33:00,
2013-03-24 01:48:00,37.3,37.0,29.77,ENE,63,8.0,12.0,97,0.00,,,0.11,weatherlink.com 1.10,2013-03-24 06:48:00,
2013-03-24 02:03:00,37.2,37.0,29.78,ENE,62,5.0,15.0,97,0.00,,,0.11,weatherlink.com 1.10,2013-03-24 07:03:00,
2013-03-24 02:18:00,37.3,37.0,29.80,NE,43,5.0,10.0,97,0.00,,,0.11,weatherlink.com 1.10,2013-03-24 07:18:00,
2013-03-24 02:33:00,37.2,37.0,29.77,NE,54,8.0,13.0,97,0.00,,,0.11,weatherlink.com 1.10,2013-03-24 07:33:00,
2013-03-24 02:48:00,37.0,36.0,29.74,ENE,76,11.0,15.0,97,0.00,,,0.11,weatherlink.com 1.10,2013-03-24 07:48:00,
2013-03-24 03:03:00,36.9,36.0,29.73,East,86,13.0,16.0,97,0.00,,,0.11,weatherlink.com 1.10,2013-03-24 08:03:00,
2013-03-24 03:18:00,36.9,36.0,29.70,East,81,9.0,17.0,97,0.00,,,0.00,weatherlink.com 1.10,2013-03-24 08:18:00,
2013-03-24 03:33:00,36.9,36.0,29.71,ENE,78,13.0,18.0,97,0.00,,,0.00,weatherlink.com 1.10,2013-03-24 08:33:00,
2013-03-24 03:48:00,36.8,36.0,29.68,ENE,63,12.0,16.0,97,0.00,,,0.00,weatherlink.com 1.10,2013-03-24 08:48:00,
2013-03-24 04:03:00,36.7,36.0,29.68,East,80,14.0,19.0,97,0.00,,,0.00,weatherlink.com 1.10,2013-03-24 09:03:00,
2013-03-24 04:18:00,36.7,36.0,29.68,East,81,8.0,15.0,97,0.00,,,0.00,weatherlink.com 1.10,2013-03-24 09:18:00,
2013-03-24 04:33:00,36.5,36.0,29.67,ENE,66,5.0,10.0,97,0.02,,,0.02,weatherlink.com 1.10,2013-03-24 09:33:00,
2013-03-24 04:48:00,36.3,36.0,29.65,ENE,65,3.0,11.0,97,0.03,,,0.03,weatherlink.com 1.10,2013-03-24 09:48:00,
2013-03-24 05:03:00,36.6,36.0,29.68,ENE,71,1.0,5.0,97,0.03,,,0.03,weatherlink.com 1.10,2013-03-24 10:03:00,
2013-03-24 05:18:00,35.5,35.0,29.62,East,83,10.0,14.0,97,0.07,,,0.07,weatherlink.com 1.10,2013-03-24 10:18:00,
2013-03-24 05:33:00,35.6,35.0,29.61,ENE,70,10.0,16.0,97,0.07,,,0.09,weatherlink.com 1.10,2013-03-24 10:33:00,
2013-03-24 05:48:00,35.9,35.0,29.63,East,82,3.0,15.0,97,0.06,,,0.09,weatherlink.com 1.10,2013-03-24 10:48:00,
2013-03-24 06:03:00,36.1,35.0,29.65,SSW,194,0.0,5.0,97,0.06,,,0.09,weatherlink.com 1.10,2013-03-24 11:03:00,
2013-03-24 06:18:00,36.4,36.0,29.65,SSW,198,0.0,3.0,97,0.03,,,0.10,weatherlink.com 1.10,2013-03-24 11:18:00,
2013-03-24 06:33:00,36.5,36.0,29.65,SSW,198,3.0,3.0,97,0.02,,,0.11,weatherlink.com 1.10,2013-03-24 11:33:00,
2013-03-24 06:48:00,36.3,36.0,29.65,West,267,2.0,5.0,97,0.03,,,0.12,weatherlink.com 1.10,2013-03-24 11:48:00,
2013-03-24 07:03:00,35.3,34.0,29.65,West,276,2.0,4.0,96,0.05,,,0.14,weatherlink.com 1.10,2013-03-24 12:03:00,
2013-03-24 07:18:00,34.4,33.0,29.64,NNW,327,4.0,6.0,96,0.05,,,0.15,weatherlink.com 1.10,2013-03-24 12:18:00,
2013-03-24 07:33:00,33.6,33.0,29.64,NNE,13,4.0,9.0,96,0.04,,,0.15,weatherlink.com 1.10,2013-03-24 12:33:00,
2013-03-24 07:49:00,32.6,32.0,29.64,North,355,5.0,11.0,96,0.04,,,0.16,weatherlink.com 1.10,2013-03-24 12:49:00,
2013-03-24 08:04:00,32.0,31.0,29.63,NNE,15,9.0,14.0,97,0.03,,,0.17,weatherlink.com 1.10,2013-03-24 13:04:00,
2013-03-24 08:19:00,31.9,31.0,29.63,NNE,15,10.0,13.0,97,0.02,,,0.17,weatherlink.com 1.10,2013-03-24 13:19:00,
2013-03-24 08:34:00,31.6,31.0,29.63,NNE,28,11.0,15.0,97,0.02,,,0.17,weatherlink.com 1.10,2013-03-24 13:34:00,
2013-03-24 08:49:00,31.4,31.0,29.64,North,360,8.0,16.0,97,0.02,,,0.18,weatherlink.com 1.10,2013-03-24 13:49:00,
2013-03-24 09:04:00,31.3,31.0,29.64,North,5,8.0,18.0,97,0.03,,,0.20,weatherlink.com 1.10,2013-03-24 14:04:00,
2013-03-24 09:19:00,31.2,31.0,29.65,North,5,7.0,16.0,98,0.03,,,0.20,weatherlink.com 1.10,2013-03-24 14:19:00,
2013-03-24 09:34:00,31.0,31.0,29.66,North,10,8.0,16.0,98,0.04,,,0.21,weatherlink.com 1.10,2013-03-24 14:34:00,
2013-03-24 09:49:00,30.8,30.0,29.67,North,355,14.0,19.0,98,0.04,,,0.22,weatherlink.com 1.10,2013-03-24 14:49:00,
2013-03-24 10:04:00,30.7,30.0,29.68,NNW,343,10.0,17.0,98,0.03,,,0.23,weatherlink.com 1.10,2013-03-24 15:04:00,
2013-03-24 10:19:00,30.7,30.0,29.69,NNW,329,9.0,17.0,98,0.04,,,0.24,weatherlink.com 1.10,2013-03-24 15:19:00,
2013-03-24 10:34:00,30.4,30.0,29.70,NW,324,8.0,21.0,98,0.04,,,0.25,weatherlink.com 1.10,2013-03-24 15:34:00,
2013-03-24 10:49:00,30.1,30.0,29.71,NNW,338,17.0,22.0,98,0.04,,,0.26,weatherlink.com 1.10,2013-03-24 15:49:00,
2013-03-24 11:04:00,29.7,29.0,29.72,North,349,14.0,26.0,98,0.03,,,0.26,weatherlink.com 1.10,2013-03-24 16:04:00,
2013-03-24 11:19:00,29.7,29.0,29.73,NNW,345,7.0,19.0,98,0.02,,,0.26,weatherlink.com 1.10,2013-03-24 16:19:00,
2013-03-24 11:34:00,29.6,29.0,29.74,NW,323,11.0,23.0,98,0.02,,,0.27,weatherlink.com 1.10,2013-03-24 16:34:00,
2013-03-24 11:49:00,29.6,29.0,29.75,NNW,337,12.0,23.0,98,0.01,,,0.27,weatherlink.com 1.10,2013-03-24 16:49:00,
2013-03-24 12:04:00,29.5,29.0,29.76,NW,323,10.0,20.0,98,0.01,,,0.27,weatherlink.com 1.10,2013-03-24 17:04:00,
2013-03-24 12:19:00,29.3,29.0,29.77,NW,326,13.0,21.0,97,0.01,,,0.27,weatherlink.com 1.10,2013-03-24 17:19:00,
2013-03-24 12:34:00,29.3,29.0,29.78,NNW,329,12.0,24.0,97,0.00,,,0.27,weatherlink.com 1.10,2013-03-24 17:34:00,
2013-03-24 12:49:00,29.4,29.0,29.78,WNW,300,14.0,22.0,97,0.00,,,0.27,weatherlink.com 1.10,2013-03-24 17:49:00,
2013-03-24 13:04:00,29.2,29.0,29.79,NW,317,16.0,24.0,98,0.00,,,0.27,weatherlink.com 1.10,2013-03-24 18:04:00,
2013-03-24 13:19:00,29.3,29.0,29.80,NNW,333,15.0,28.0,97,0.00,,,0.27,weatherlink.com 1.10,2013-03-24 18:19:00,
2013-03-24 13:35:00,29.4,29.0,29.81,NW,311,12.0,25.0,97,0.00,,,0.27,weatherlink.com 1.10,2013-03-24 18:35:00,
2013-03-24 13:50:00,29.2,29.0,29.82,NW,309,14.0,32.0,97,0.00,,,0.27,weatherlink.com 1.10,2013-03-24 18:50:00,
2013-03-24 14:05:00,29.1,28.0,29.82,NW,304,19.0,31.0,97,0.00,,,0.27,weatherlink.com 1.10,2013-03-24 19:05:00,
2013-03-24 14:20:00,29.2,29.0,29.83,WNW,291,19.0,26.0,97,0.00,,,0.27,weatherlink.com 1.10,2013-03-24 19:20:00,
2013-03-24 14:35:00,29.6,29.0,29.83,NW,304,21.0,32.0,97,0.00,,,0.27,weatherlink.com 1.10,2013-03-24 19:35:00,
2013-03-24 14:50:00,29.6,29.0,29.84,NW,310,19.0,33.0,96,0.00,,,0.27,weatherlink.com 1.10,2013-03-24 19:50:00,
2013-03-24 15:05:00,29.7,29.0,29.84,WNW,300,21.0,32.0,96,0.00,,,0.27,weatherlink.com 1.10,2013-03-24 20:05:00,
2013-03-24 15:20:00,29.0,28.0,29.86,WNW,303,23.0,31.0,96,0.00,,,0.27,weatherlink.com 1.10,2013-03-24 20:20:00,
2013-03-24 15:35:00,29.2,28.0,29.86,NW,304,18.0,31.0,96,0.00,,,0.27,weatherlink.com 1.10,2013-03-24 20:35:00,
2013-03-24 15:50:00,29.4,28.0,29.87,NW,307,19.0,26.0,96,0.00,,,0.27,weatherlink.com 1.10,2013-03-24 20:50:00,
2013-03-24 16:05:00,29.5,29.0,29.88,NW,317,22.0,26.0,96,0.00,,,0.27,weatherlink.com 1.10,2013-03-24 21:05:00,
2013-03-24 16:20:00,29.1,28.0,29.89,NW,309,15.0,28.0,96,0.00,,,0.27,weatherlink.com 1.10,2013-03-24 21:20:00,
2013-03-24 16:35:00,28.8,28.0,29.89,NW,315,18.0,30.0,96,0.00,,,0.27,weatherlink.com 1.10,2013-03-24 21:35:00,
2013-03-24 16:50:00,28.9,28.0,29.90,NW,311,22.0,30.0,96,0.00,,,0.27,weatherlink.com 1.10,2013-03-24 21:50:00,
2013-03-24 17:05:00,29.0,28.0,29.90,NW,318,15.0,23.0,96,0.00,,,0.27,weatherlink.com 1.10,2013-03-24 22:05:00,
2013-03-24 17:20:00,28.8,28.0,29.91,WNW,288,25.0,29.0,95,0.00,,,0.27,weatherlink.com 1.10,2013-03-24 22:20:00,
2013-03-24 17:35:00,29.0,28.0,29.92,NW,309,16.0,24.0,95,0.00,,,0.27,weatherlink.com 1.10,2013-03-24 22:35:00,
2013-03-24 17:50:00,28.5,28.0,29.92,NW,317,18.0,28.0,96,0.00,,,0.27,weatherlink.com 1.10,2013-03-24 22:50:00,
2013-03-24 18:05:00,28.5,27.0,29.93,WNW,298,16.0,29.0,95,0.00,,,0.27,weatherlink.com 1.10,2013-03-24 23:05:00,
2013-03-24 18:20:00,28.3,27.0,29.94,NW,312,22.0,31.0,95,0.00,,,0.27,weatherlink.com 1.10,2013-03-24 23:20:00,
2013-03-24 18:35:00,28.3,27.0,29.95,WNW,289,22.0,32.0,95,0.00,,,0.27,weatherlink.com 1.10,2013-03-24 23:35:00,
2013-03-24 18:50:00,28.5,27.0,29.96,NW,307,18.0,25.0,95,0.00,,,0.27,weatherlink.com 1.10,2013-03-24 23:50:00,
2013-03-24 19:05:00,28.5,27.0,29.97,WNW,292,23.0,29.0,94,0.00,,,0.27,weatherlink.com 1.10,2013-03-25 00:05:00,
2013-03-24 19:20:00,28.1,26.0,29.97,WNW,302,19.0,33.0,93,0.00,,,0.27,weatherlink.com 1.10,2013-03-25 00:20:00,
2013-03-24 19:35:00,27.9,26.0,29.98,NW,313,13.0,24.0,93,0.00,,,0.27,weatherlink.com 1.10,2013-03-25 00:35:00,
2013-03-24 19:50:00,27.9,26.0,29.99,WNW,302,17.0,26.0,92,0.00,,,0.27,weatherlink.com 1.10,2013-03-25 00:50:00,
2013-03-24 20:05:00,27.9,26.0,29.99,NW,308,27.0,27.0,92,0.00,,,0.27,weatherlink.com 1.10,2013-03-25 01:05:00,
2013-03-24 20:20:00,27.8,26.0,30.00,NW,315,17.0,29.0,91,0.00,,,0.27,weatherlink.com 1.10,2013-03-25 01:20:00,
2013-03-24 20:36:00,27.6,25.0,30.02,WNW,299,20.0,28.0,91,0.00,,,0.27,weatherlink.com 1.10,2013-03-25 01:36:00,
2013-03-24 20:51:00,27.3,25.0,30.02,NW,311,19.0,24.0,91,0.00,,,0.27,weatherlink.com 1.10,2013-03-25 01:51:00,
2013-03-24 21:06:00,27.2,25.0,30.03,WNW,294,14.0,31.0,90,0.00,,,0.27,weatherlink.com 1.10,2013-03-25 02:06:00,
2013-03-24 21:21:00,27.0,25.0,30.04,NW,304,15.0,27.0,90,0.00,,,0.27,weatherlink.com 1.10,2013-03-25 02:21:00,
2013-03-24 22:06:00,26.5,23.0,30.06,NW,308,22.0,26.0,88,0.00,,,0.27,weatherlink.com 1.10,2013-03-25 03:06:00,
2013-03-24 22:51:00,26.4,23.0,30.07,West,275,11.0,25.0,87,0.00,,,0.27,weatherlink.com 1.10,2013-03-25 03:51:00,
2013-03-24 23:06:00,26.3,22.0,30.07,NW,304,17.0,26.0,85,0.00,,,0.27,weatherlink.com 1.10,2013-03-25 04:06:00,
2013-03-24 23:21:00,26.0,22.0,30.07,NW,310,10.0,28.0,84,0.00,,,0.27,weatherlink.com 1.10,2013-03-25 04:21:00,
2013-03-24 23:36:00,25.8,24.0,30.08,West,279,19.0,29.0,92,0.00,,,0.27,weatherlink.com 1.10,2013-03-25 04:36:00,
2013-03-24 23:51:00,25.7,22.0,30.08,WNW,286,19.0,23.0,86,0.00,,,0.27,weatherlink.com 1.10,2013-03-25 04:51:00,